Regional Weather Roundup
Issued by NWS

Home | Current Version | Previous Version | Text Only | Print | Product List | Glossary On
Versions: 1 2 3 4 5 6 7 8 9 10 11 12 13 14 15 16 17 18 19 20 21 22 23 24 25 26 27 28 29 30 31 32 33 34 35 36 37 38 39 40 41 42 43 44 45 46 47 48 49 50
000
ASUS43 KLSX 041910
RWRMO

WEATHER SUMMARY FOR MISSOURI
NATIONAL WEATHER SERVICE SPRINGFIELD MO
200 PM CDT TUE AUG 04 2015

NOTE: "FAIR" INDICATES FEW OR NO CLOUDS BELOW 12,000 FEET WITH NO
       SIGNIFICANT WEATHER AND/OR OBSTRUCTIONS TO VISIBILITY.
       CURRENT SKY AND/OR WEATHER CONDITIONS ARE NOT AVAILABLE FOR
       CHILLICOTHE AND FARMINGTON.

MOZ001>031-035>038-043-044-053-054-042000-
...NORTHERN AND WESTERN MISSOURI...

CITY           SKY/WX    TMP DP  RH WIND       PRES   REMARKS
KANSAS CTY INT CLOUDY    82  71  69 E14       29.98F
KANSAS C DTWN  CLOUDY    82  71  69 E12       29.96F
LEE`S SUMMIT   CLOUDY    80  70  71 E13       29.99F
ST JOSEPH      CLOUDY    81  70  69 SE13      29.97F
CHILLICOTHE      N/A     79  67  66 E6        30.00F
KIRKSVILLE     CLOUDY    72  66  81 SE10      30.01F

$$
MOZ066>068-077>081-088>096-101>105-042000-
...SOUTHWEST MISSOURI...

CITY           SKY/WX    TMP DP  RH WIND       PRES   REMARKS
SPRINGFIELD    CLOUDY    88  66  48 W13       30.01S HX  90
JOPLIN         CLOUDY    85  69  58 SW8       30.01S

$$
MOZ032>034-039>042-045>050-055>058-069>072-042000-
...CENTRAL MISSOURI...

CITY           SKY/WX    TMP DP  RH WIND       PRES   REMARKS
COLUMBIA       MOSUNNY   86  71  60 N16       30.02R HX  91
JEFFERSON CITY MOSUNNY   88  68  51 N8        29.98S HX  91
ROLLA          PTSUNNY   89  68  49 VRB6      30.00S HX  93
SEDALIA        CLOUDY    82  71  69 NE15      30.02R
WHITEMAN AFB   PTSUNNY   80  71  74 NE13      29.99S
WARRENSBURG    CLOUDY    79  70  73 NE13      30.00S
OSAGE BEACH    CLOUDY    88  68  51 SW5       30.01S HX  91

$$
MOZ051-052-059>065-042000-
...EAST CENTRAL MISSOURI...

CITY           SKY/WX    TMP DP  RH WIND       PRES   REMARKS
ST LOUIS INTL  PTSUNNY   91  69  48 VRB6      29.99S HX  96
SPIRIT OF STL  PTSUNNY   89  71  55 W5        29.98R HX  95
ST CHARLES     PTSUNNY   87  69  54 MISG      29.98S HX  91

$$
MOZ072>076-082>087-097>100-106>115-042000-
...SOUTH CENTRAL AND SOUTHEAST MISSOURI...

CITY           SKY/WX    TMP DP  RH WIND       PRES   REMARKS
CAPE GIRARDEAU MOSUNNY   91  72  53 SW10      29.97F HX  98
FARMINGTON     PTSUNNY   90  66  45 W8        30.05R HX  92
POPLAR BLUFF   PTSUNNY   90  74  59 S7        29.97F HX  99
WEST PLAINS    PTSUNNY   88  66  48 SW9       30.04S HX  90

$$



USA.gov is the U.S. government's official web portal to all federal, state and local government web resources and services.